Location: Albany
(35.0170°S, 117.8920°E)
Time: 11:38:28
(UTC+08:00)

S-56A Canister/Altair - Pass Details

Date: 28 January 2021
Orbit: 631 x 2501 km, 38.9° (Epoch: 02 March)

Event Time Altitude Azimuth Distance (km) Brightness Sun altitude
Rises 15:40:05 0° 263° (W) 5,849 12.8 43.0°
Reaches altitude 10° 15:43:42 10° 261° (W) 4,984 12.7 42.3°
Maximum altitude 15:58:48 78° 174° (S) 2,540 10.8 39.2°
Drops below altitude 10° 16:12:55 10° 87° (E) 4,701 11.1 36.3°
Sets 16:16:14 0° 85° (E) 5,514 11.4 35.6°
